Regional Weather Roundup
Issued by NWS Jackson, KY

Home | Current Version | Previous Version | Graphics & Text | Print | Product List | Glossary On
Versions: 1 2 3 4 5 6 7 8 9 10 11 12 13 14 15 16 17 18 19 20 21 22 23 24 25 26 27 28 29 30 31 32 33 34 35 36 37 38 39 40 41 42 43 44 45 46 47 48 49 50
000
ASUS43 KJKL 262310
RWRJKL

EAST KENTUCKY HOURLY WEATHER ROUNDUP
NATIONAL WEATHER SERVICE JACKSON KY
700 PM EDT THU MAR 26 2015

NOTE: "FAIR" INDICATES FEW OR NO CLOUDS BELOW 12,000 FEET WITH
NO SIGNIFICANT WEATHER AND/OR OBSTRUCTIONS TO VISIBILITY.

* THESE REPORTS ARE NOT UNDER NWS QUALITY CONTROL AND MAY NOT
  REPORT WEATHER SUCH AS PRECIPITATION AND FOG.

KYZ079-080-083-085-087-088-110-112-115-119-120-270000
...EASTERN KENTUCKY...

CITY           SKY/WX    TMP DP  RH WIND       PRES   REMARKS
JACKSON        LGT RAIN  45  42  89 VRB5      29.87R
LONDON         CLOUDY    47  41  80 N12G18    29.88R HAZE
SOMERSET*      LGT RAIN  43  41  93 N14G20    29.91R
MONTICELLO*    CLOUDY    46  44  93 N10       29.93R FOG
MIDDLESBORO*   HVY RAIN  51  49  93 N10       29.83R
HAZARD APT*    RAIN      46  45  93 CALM      29.87R
BLACK MTN*       N/A     43  43 100 N8          N/A
PIKEVILLE APT* RAIN      45  43  93 N7G16     29.85R
BIG SANDY*     LGT RAIN  46  45  97 N5        29.85R
MOREHEAD APT*  CLOUDY    45  43  93 NW6       29.92R FOG
$$

KYZ035-036-041-042-044-050-067-078-099-270000
...CENTRAL KENTUCKY...

CITY           SKY/WX    TMP DP  RH WIND       PRES   REMARKS
MT STERLING*   DRIZZLE   43  43 100 N8        29.92R
FLEMING/MASON* DRIZZLE   45  43  93 NW8       29.91R
DANVILLE*      CLOUDY    43  41  93 N13       29.93S
RICHMOND*      CLOUDY    43  41  93 N8        29.91R
LEXINGTON      LGT RAIN  43  39  86 N9G21     29.92R
FRANKFORT      CLOUDY    44  40  85 NW12      29.91S
$$

KYZ091>093-OHZ055-061-077-WVZ005-015-034-035-042-270000
...SOUTHERN OHIO/WEST VIRGINIA...

CITY           SKY/WX    TMP DP  RH WIND       PRES   REMARKS
COVINGTON      CLOUDY    42  34  73 NW5       29.92R
COLUMBUS       LGT RAIN  41  35  79 NW8       29.89R
DAYTON         CLOUDY    41  34  76 NW8       29.91S
WILMINGTON     CLOUDY    41  34  76 NW12      29.90R
HUNTINGTON     CLOUDY    46  41  82 NW9       29.86R
CHARLESTON     LGT RAIN  47  44  90 VRB5      29.83R
PINEVILLE*     RAIN      54  53  97 MISG      29.83R
BECKLEY        LGT RAIN  50  47  89 N14       29.77F FOG
BLUEFIELD      CLOUDY    57  52  83 W6        29.76F
$$

VAZ002-007-008-TNZ017-027-036-066-071-270000
...SOUTHWEST VIRGINIA/EAST TENNESSEE...

CITY           SKY/WX    TMP DP  RH WIND       PRES   REMARKS
WISE*          HVY RAIN  52  52 100 N12       29.81R
JONESVILLE*    LGT RAIN  55  54  94 NW3       29.80R
ABINGDON*      CLOUDY    67  53  59 N21       29.72R
BRISTOL        CLOUDY    66  53  63 NW16G31   29.71R
KNOXVILLE      LGT RAIN  61  58  90 NW14      29.73R
OAK RIDGE      CLOUDY    60  56  86 NE5       29.77R
CROSSVILLE     CLOUDY    49  46  90 NW14G24   29.86R FOG
NASHVILLE      LGT RAIN  45  42  89 N8G20     29.96R
$$

...KEY TO REMARKS...
VSB - VISIBILITY IN MILES
WCI - WIND CHILL INDEX
HX  - HEAT INDEX

$$


USA.gov is the U.S. government's official web portal to all federal, state and local government web resources and services.